Location: Newark
(50.0306°N, 2.3272°E)
Time: 14:12:55
(UTC+00:00)

A-11 Canister half - Pass Details

Date: 11 December 2019
Orbit: 1525 x 1684 km, 47.3° (Epoch: 25 January)

Event Time Altitude Azimuth Distance (km) Brightness Sun altitude
Rises 12:56:26 0° 289° (WNW) 4,923 11.6 15.2°
Reaches altitude 10° 13:00:27 10° 276° (W) 3,914 11.3 15.0°
Maximum altitude 13:07:39 23° 229° (SW) 2,956 11.8 14.6°
Drops below altitude 10° 13:14:42 10° 182° (S) 3,816 12.8 14.2°
Sets 13:18:35 0° 169° (S) 4,771 12.6 14.0°
